Cahokia, IL

7:02 PM CDT on May 24, 2018 (GMT -0500)
Saint Louis Downtown

Weather History for KCPS - November, 2013

Change the Weather History Date:

Wednesday, November 20, 2013

  Actual Average Record
Temperature  
Mean Temperature 38 °F -  
Max Temperature 48 °F 51 °F 76 °F (1942)
Min Temperature 28 °F 38 °F 20 °F (1964)
Degree Days  
Heating Degree Days 27    
Moisture  
Dew Point 32 °F    
Average Humidity 74    
Maximum Humidity 85    
Minimum Humidity 62    
Precipitation  
Precipitation 0.08 in - - ()
Sea Level Pressure  
Sea Level Pressure 30.15 in    
Wind  
Wind Speed 5 mph (SE)    
Max Wind Speed 12 mph    
Max Gust Speed 16 mph    
Visibility 10 miles    
Events Rain    
Averages and records for this station are not official NWS values.
T = Trace of Precipitation, MM = Missing Value Source: NWS Daily Summary

Daily Weather History Graph

Daily Weather History Graph

Search for Another Location

Airport or City:

Astronomy

Nov. 20, 2013 Rise Set
Actual Time 6:48 AM CST 4:44 PM CST
Civil Twilight 6:19 AM CST 5:12 PM CST
Nautical Twilight 5:47 AM CST 5:45 PM CST
Astronomical Twilight 5:15 AM CST 6:16 PM CST
Moon 7:27 PM CST (11/20) 9:13 AM CST (11/20)
Length of Visible Light 10h 53m
Length of Day
9h 55m
Waning Gibbous, 91% of the Moon is Illuminated
Nov 20
Waning Gibbous
Nov 25
Last Quarter
Dec 2
New
Dec 9
First Quarter
Dec 17
Full

Hourly Weather History & Observations

Time (CST) Temp. Windchill Dew Point Humidity Pressure Visibility Wind Dir Wind Speed Gust Speed Precip Events Conditions
12:53 AM 30.0 °F - 25.0 °F 82% 30.24 in 10.0 mi Calm Calm - N/A   Clear
1:53 AM 28.9 °F 22.8 °F 25.0 °F 85% 30.23 in 10.0 mi ESE 5.8 mph - N/A   Clear
2:53 AM 33.1 °F - 26.1 °F 75% 30.24 in 10.0 mi Calm Calm - N/A   Partly Cloudy
3:53 AM 33.1 °F 28.7 °F 28.0 °F 82% 30.23 in 10.0 mi SE 4.6 mph - N/A   Scattered Clouds
4:53 AM 34.0 °F 28.8 °F 28.0 °F 79% 30.22 in 10.0 mi SE 5.8 mph - N/A   Overcast
5:53 AM 34.0 °F 26.6 °F 28.0 °F 79% 30.19 in 10.0 mi ESE 9.2 mph - N/A   Mostly Cloudy
6:53 AM 33.1 °F 28.7 °F 28.0 °F 82% 30.20 in 10.0 mi SSE 4.6 mph - N/A   Clear
7:53 AM 34.0 °F 26.0 °F 28.0 °F 79% 30.21 in 10.0 mi SE 10.4 mph - N/A   Clear
8:53 AM 37.0 °F 29.3 °F 28.9 °F 73% 30.20 in 10.0 mi SE 11.5 mph - N/A   Partly Cloudy
9:53 AM 39.0 °F 31.8 °F 30.9 °F 73% 30.19 in 10.0 mi SSE 11.5 mph 16.1 mph N/A   Clear
10:53 AM 42.1 °F 37.7 °F 30.9 °F 65% 30.18 in 10.0 mi South 6.9 mph - N/A   Clear
11:53 AM 43.0 °F 40.3 °F 30.9 °F 62% 30.17 in 10.0 mi SSE 4.6 mph - N/A   Overcast
12:53 PM 42.1 °F 38.4 °F 34.0 °F 73% 30.13 in 10.0 mi ESE 5.8 mph - 0.01 in Rain Light Rain
1:53 PM 42.1 °F 40.2 °F 35.1 °F 76% 30.12 in 8.0 mi ESE 3.5 mph - 0.01 in Rain Light Rain
2:53 PM 43.0 °F 39.5 °F 37.0 °F 80% 30.08 in 10.0 mi East 5.8 mph - 0.01 in   Overcast
3:53 PM 44.1 °F 42.5 °F 36.0 °F 73% 30.07 in 10.0 mi ESE 3.5 mph - 0.00 in Rain Light Rain
4:53 PM 45.0 °F 40.1 °F 35.1 °F 68% 30.06 in 10.0 mi ESE 9.2 mph - 0.00 in   Overcast
5:53 PM 45.0 °F 41.2 °F 36.0 °F 71% 30.09 in 10.0 mi SE 6.9 mph - 0.00 in Rain Light Rain
6:53 PM 45.0 °F - 37.0 °F 74% 30.10 in 10.0 mi Calm Calm - 0.03 in Rain Light Rain
7:53 PM 45.0 °F 40.6 °F 37.0 °F 74% 30.07 in 10.0 mi SE 8.1 mph - 0.02 in   Overcast
8:53 PM 46.9 °F - 37.0 °F 68% 30.10 in 10.0 mi Variable 3.5 mph - N/A   Overcast
9:53 PM 48.0 °F - 37.0 °F 66% 30.09 in 10.0 mi SSE 4.6 mph - N/A   Overcast
10:53 PM 48.9 °F - 37.9 °F 66% 30.08 in 10.0 mi SSE 9.2 mph - 0.00 in   Overcast
11:53 PM 48.9 °F - 39.0 °F 69% 30.11 in 10.0 mi Variable 5.8 mph - 0.00 in   Overcast